Location: Bourg-d�Oueil
(42.8588°N, 0.4991°E)
Time: 02:47:44
(UTC+00:00)

Meteor 1-21 Rocket - Pass Details

Date: 16 June 2021
Orbit: 834 x 907 km, 81.2° (Epoch: 04 August)

Event Time Altitude Azimuth Distance (km) Brightness Sun altitude
Exits shadow 23:39:36 56° 195° (SSW) 1,010 4.2 -23.6°
Maximum altitude 23:40:53 86° 278° (W) 861 4.1 -23.6°
Drops below altitude 10° 23:46:36 10° 9° (N) 2,516 7.7 -23.7°
Sets 23:49:04 0° 10° (N) 3,469 8.7 -23.7°
